TimeMST,TemperatureF,Dew PointF,Humidity,Sea Level PressureIn,VisibilityMPH,Wind Direction,Wind SpeedMPH,Gust SpeedMPH,PrecipitationIn,Events,Conditions,WindDirDegrees,DateUTC
12:53 AM,26.1,17.1,69,29.91,10.0,SW,15.0,-,N/A,,Clear,220,2012-12-11 07:53:00
1:53 AM,26.1,17.1,69,29.90,10.0,SW,13.8,-,N/A,,Clear,230,2012-12-11 08:53:00
2:53 AM,27.0,19.0,72,29.88,10.0,SW,12.7,-,N/A,,Clear,220,2012-12-11 09:53:00
3:53 AM,32.0,21.0,64,29.82,10.0,SW,18.4,-,N/A,,Clear,220,2012-12-11 10:53:00
4:53 AM,34.0,23.0,64,29.78,10.0,SSW,19.6,-,N/A,,Clear,210,2012-12-11 11:53:00
5:53 AM,36.0,24.1,62,29.72,10.0,SSW,19.6,-,N/A,,Clear,210,2012-12-11 12:53:00
6:53 AM,37.9,25.0,60,29.70,10.0,SW,23.0,-,N/A,,Partly Cloudy,220,2012-12-11 13:53:00
7:53 AM,37.9,26.1,62,29.67,10.0,SW,24.2,32.2,N/A,,Overcast,220,2012-12-11 14:53:00
8:53 AM,37.9,26.1,62,29.65,10.0,SSW,25.3,-,N/A,,Scattered Clouds,210,2012-12-11 15:53:00
9:53 AM,39.9,27.0,60,29.63,10.0,SW,28.8,34.5,N/A,,Scattered Clouds,220,2012-12-11 16:53:00
10:53 AM,41.0,26.1,55,29.61,10.0,SW,28.8,38.0,N/A,,Clear,220,2012-12-11 17:53:00
11:53 AM,41.0,27.0,57,29.58,10.0,SW,23.0,33.4,N/A,,Clear,220,2012-12-11 18:53:00
12:53 PM,41.0,27.0,57,29.54,10.0,SW,31.1,39.1,N/A,,Clear,220,2012-12-11 19:53:00
1:53 PM,42.1,27.0,55,29.55,10.0,SW,29.9,36.8,N/A,,Clear,220,2012-12-11 20:53:00
2:53 PM,42.1,26.1,53,29.54,10.0,SSW,24.2,34.5,N/A,,Overcast,210,2012-12-11 21:53:00
3:53 PM,42.1,25.0,51,29.55,10.0,SSW,18.4,26.5,N/A,,Overcast,210,2012-12-11 22:53:00
4:53 PM,41.0,25.0,53,29.53,10.0,SW,21.9,28.8,N/A,,Overcast,220,2012-12-11 23:53:00
5:53 PM,39.9,25.0,55,29.53,10.0,SW,20.7,28.8,N/A,,Clear,220,2012-12-12 00:53:00
6:53 PM,39.9,25.0,55,29.51,10.0,SW,26.5,35.7,N/A,,Clear,230,2012-12-12 01:53:00
7:53 PM,39.0,25.0,57,29.52,10.0,SW,24.2,-,N/A,,Scattered Clouds,220,2012-12-12 02:53:00
8:53 PM,39.9,25.0,55,29.52,10.0,SW,20.7,-,N/A,,Mostly Cloudy,220,2012-12-12 03:53:00
9:53 PM,39.9,26.1,58,29.52,10.0,SW,17.3,-,N/A,,Overcast,220,2012-12-12 04:53:00
10:53 PM,39.9,25.0,55,29.53,10.0,SW,16.1,21.9,N/A,,Overcast,220,2012-12-12 05:53:00
11:53 PM,39.0,26.1,60,29.54,10.0,SSW,18.4,-,N/A,,Overcast,210,2012-12-12 06:53:00